Wind_Speed
7 7 7 7 6 7 7 10 9 10 9 7 9 8 11 12 14 14 11 12 19 15 9 10 10 11 10 10 9 10 12 14 15 16 17 17 17 17 18 17 17 17 16
10 7 7 8 10 7 7 6 10 10 9 10 8 9 12 15 17 15 14 10 13 18 13 11 10 12 14 13 13 15 14 15 16 18 19 19 17 17 17 16 15 16 14
15 12 9 9 10 8 9 9 10 8 11 11 13 15 16 17 14 16 15 13 14 18 17 15 13 11 12 16 16 17 18 18 18 19 20 21 21 20 19 19 19 17 15
9 11 11 9 10 9 8 9 7 13 14 13 14 17 18 15 14 16 16 16 13 19 22 17 16 17 16 13 18 19 20 21 21 22 22 22 22 22 20 19 19 19 18
8 10 8 7 8 9 7 6 8 8 6 8 9 11 15 16 13 14 15 15 15 17 20 22 20 20 20 22 19 22 22 22 23 24 25 25 24 23 22 22 22 21 19
8 8 6 7 7 7 8 8 9 9 10 8 9 12 13 14 14 12 15 16 18 16 15 20 20 19 22 25 27 23 22 22 24 26 27 27 26 26 25 24 23 22 22
5 6 9 8 9 9 11 11 11 11 10 11 11 11 11 12 11 9 10 10 15 6 6 14 26 18 19 24 23 23 25 21 23 24 27 28 28 28 27 26 26 26 25
8 9 10 10 12 14 10 12 11 10 10 11 9 9 6 5 3 1 6 4 3 4 6 8 9 13 20 29 22 26 24 28 26 25 25 27 29 30 29 28 28 28 27
8 9 8 8 10 9 11 12 11 11 10 8 6 4 3 2 8 4 7 7 4 5 2 9 4 7 8 4 12 24 29 31 29 27 26 28 28 30 29 27 30 30 28
7 5 4 5 5 8 8 7 7 8 7 6 4 2 3 6 2 4 3 4 7 9 10 4 4 4 5 5 3 7 19 22 28 31 29 28 28 29 30 31 26 26 26
5 5 8 10 11 11 7 6 5 4 5 4 4 5 5 4 2 3 6 5 3 5 11 4 1 3 3 2 4 6 11 17 10 25 30 28 28 29 30 29 28 25 22
6 9 8 8 6 4 4 5 5 8 7 7 6 4 4 3 6 5 7 8 7 5 11 5 5 5 2 3 2 2 4 9 9 11 26 29 27 26 26 25 27 26 23
9 8 7 8 6 6 7 6 6 7 8 8 8 6 5 7 6 5 5 6 5 12 4 8 6 4 4 1 5 2 1 4 5 8 13 23 26 24 24 23 23 25 24
10 8 8 11 8 7 8 8 7 7 8 7 9 9 9 7 8 7 4 2 1 4 5 13 9 5 4 3 3 2 2 5 4 7 12 17 18 20 22 22 21 22 24
7 7 8 7 4 3 4 5 6 6 7 8 7 6 5 6 8 9 6 5 1 2 3 7 7 8 4 2 4 6 7 7 7 9 8 8 10 13 15 17 19 19 21
8 9 9 5 2 1 1 3 3 2 3 3 3 4 2 2 4 7 9 7 5 5 6 7 6 8 6 7 6 6 11 14 14 13 14 11 10 7 8 9 12 15 16
9 7 5 4 1 2 2 1 0 1 2 1 2 4 4 3 2 2 4 7 8 6 5 5 1 4 9 10 10 3 2 6 11 15 13 14 13 12 8 7 11 14 17
8 6 4 3 1 1 2 1 1 0 0 1 1 4 2 3 3 5 7 5 4 4 4 3 4 5 2 3 8 9 8 9 8 10 11 12 12 9 7 8 11 14 15
7 5 3 1 1 2 2 4 5 4 1 2 4 5 3 3 5 3 5 8 9 8 9 6 7 8 6 3 3 7 10 10 7 6 11 13 10 9 10 12 11 9 11
7 5 3 3 2 3 2 1 3 4 3 3 5 8 8 6 5 5 5 3 5 8 9 7 6 7 4 4 6 6 7 10 10 8 9 7 16 15 13 14 12 8 7
9 7 6 5 6 5 6 7 7 9 11 8 5 4 7 6 5 6 5 7 8 6 6 6 8 8 6 6 8 10 11 8 10 12 11 11 8 9 10 10 10 9 9
9 8 8 8 9 6 6 6 11 12 10 10 8 4 5 10 9 7 9 12 11 7 5 4 4 5 6 4 4 5 6 7 6 8 6 7 9 7 8 6 5 5 5
11 9 10 10 10 9 9 10 11 10 9 9 11 7 5 9 11 8 8 8 9 6 6 5 5 5 4 5 6 7 7 9 7 6 8 5 5 4 5 3 3 3 3
11 11 10 9 9 9 10 10 9 8 8 7 10 10 7 5 10 8 8 10 9 6 8 8 7 5 6 7 9 9 9 8 6 6 3 4 5 4 5 4 2 3 3
12 10 9 8 7 7 7 7 8 9 7 8 13 11 8 6 9 10 11 13 12 8 8 9 8 9 9 9 7 5 6 8 7 6 5 5 6 6 6 5 3 5 4
11 12 12 10 9 7 6 3 4 4 5 5 10 11 10 10 10 10 11 14 14 10 9 11 12 13 12 11 10 5 3 3 6 7 8 8 8 6 5 8 7 8 7
Wind_Direction
195 195 209 210 228 234 209 188 191 191 208 230 245 272 245 256 254 260 266 273 252 245 241 243 249 244 236 227 213 216 207 196 188 181 182 174 170 166 172 173 163 161 156
219 218 205 203 216 239 211 221 228 215 222 234 254 256 256 249 255 248 253 258 249 239 247 247 252 249 239 237 234 223 216 216 204 198 196 196 190 181 177 185 189 185 185
220 230 239 234 230 256 247 246 234 235 258 266 263 250 249 250 250 262 258 261 252 240 249 249 254 258 247 241 243 244 233 221 219 211 207 206 210 211 209 200 209 213 208
217 217 244 234 238 239 242 259 270 256 261 264 255 248 251 257 258 256 267 252 238 242 246 255 255 268 263 255 240 241 240 234 225 223 216 214 213 214 213 217 214 215 213
183 193 196 192 197 216 221 252 252 253 280 288 255 242 245 265 261 253 264 270 252 247 240 249 255 254 259 260 255 238 239 236 232 227 225 221 217 216 217 213 216 218 221
186 191 219 234 216 209 225 256 271 284 289 277 257 265 266 280 280 269 246 252 253 276 255 259 260 266 266 256 251 245 238 234 235 235 228 226 225 220 219 221 220 222 223
231 236 224 267 250 263 259 255 266 277 279 285 279 275 282 283 283 308 291 281 251 249 295 281 260 263 241 263 283 238 246 234 231 231 234 230 228 229 226 225 226 224 226
236 234 243 250 258 258 253 264 269 264 275 264 270 280 288 293 294 356 342 314 229 258 305 346 297 262 266 256 262 228 238 239 234 228 233 233 231 231 231 229 230 229 229
209 233 225 250 234 242 253 260 253 256 253 258 264 278 309 339 343 32 60 47 29 30 320 319 306 273 353 158 262 254 244 235 232 231 227 229 231 233 231 236 235 235 235
225 234 244 256 257 247 267 269 263 248 233 217 228 225 295 314 7 329 327 18 4 351 353 329 322 293 311 162 49 200 224 233 228 228 228 229 227 231 231 229 236 237 237
252 270 268 270 273 263 263 245 227 220 193 209 232 255 281 290 287 301 304 5 27 31 12 6 161 145 251 296 333 253 234 205 213 230 224 227 231 233 237 239 239 241 237
251 259 272 284 263 269 243 238 228 224 218 234 245 269 285 270 275 280 287 307 326 328 5 339 208 228 258 271 5 332 211 216 275 255 233 229 233 239 247 248 249 251 252
234 247 280 312 273 260 272 260 249 245 242 251 263 260 267 270 271 300 300 313 326 329 4 44 156 220 234 156 108 72 305 262 251 240 242 240 237 243 246 247 253 260 257
240 256 279 291 283 276 265 259 249 241 247 264 276 278 277 267 253 267 310 336 216 324 81 65 92 118 131 150 161 206 276 319 283 281 254 244 242 243 243 247 252 262 264
247 262 280 293 276 262 251 241 240 256 269 275 275 260 251 255 256 236 240 258 296 274 149 92 98 105 143 184 304 306 286 277 252 257 269 282 262 249 244 246 252 252 252
249 253 267 269 265 189 205 244 252 262 276 272 264 287 310 263 262 241 234 236 232 232 235 234 274 242 244 238 252 277 280 269 263 241 249 244 268 253 249 248 252 250 249
249 243 235 227 217 81 50 331 176 121 131 121 33 4 334 317 273 249 242 240 244 242 241 242 198 215 227 229 223 232 272 272 253 246 257 241 255 243 245 257 258 253 249
209 201 191 195 154 63 46 56 33 52 284 67 17 354 10 15 341 272 255 247 254 265 275 251 261 267 273 221 230 223 246 279 299 236 234 244 223 207 228 268 284 269 256
198 182 178 200 332 12 31 74 81 74 244 282 308 320 324 331 345 331 274 256 257 263 273 277 278 297 274 263 288 224 237 277 289 224 261 244 217 219 249 256 279 279 260
210 204 211 223 243 273 272 286 278 345 356 318 310 296 309 308 320 332 334 307 269 255 257 261 248 256 250 241 253 258 250 263 262 281 293 276 211 233 249 251 269 278 261
217 222 242 259 272 269 279 282 283 305 308 298 301 334 323 318 310 306 318 324 324 281 256 252 240 249 261 279 287 259 263 294 278 272 259 255 241 240 251 271 266 250 249
223 233 243 245 249 259 273 282 283 289 286 273 281 314 10 357 313 311 313 314 320 306 274 289 293 267 270 284 287 303 310 293 246 254 251 233 229 230 244 234 236 242 255
222 234 238 241 246 255 262 269 283 289 278 265 263 278 292 350 351 326 323 326 313 271 289 266 276 293 302 307 297 289 300 299 290 285 263 240 223 236 215 200 207 237 232
224 235 239 243 251 253 261 267 279 293 294 263 237 269 275 326 334 339 342 349 348 290 270 264 266 250 281 305 307 302 291 281 286 263 287 213 212 234 232 217 202 172 187
228 237 242 241 247 266 274 274 286 292 287 260 244 273 277 284 305 309 321 332 337 311 277 259 266 271 269 270 285 298 301 284 276 267 246 222 206 217 218 214 234 195 187
227 229 229 238 249 269 282 258 316 308 305 287 256 265 281 294 295 302 313 324 332 323 291 257 258 253 265 265 266 263 299 316 348 321 269 256 240 244 218 226 219 220 223
Height
1562 1562 1564 1565 1566 1566 1567 1567 1568 1568 1568 1569 1569 1568 1568 1569 1569 1569 1570 1570 1570 1571 1570 1571 1571 1571 1572 1573 1573 1575 1576 1578 1580 1581 1583 1584 1583 1585 1585 1586 1588 1589 1590
1561 1561 1562 1563 1564 1564 1566 1565 1566 1565 1565 1566 1565 1565 1566 1566 1566 1567 1568 1568 1568 1568 1568 1568 1568 1569 1570 1571 1572 1573 1574 1576 1579 1581 1583 1585 1586 1585 1586 1588 1589 1589 1590
1560 1561 1561 1562 1563 1563 1564 1565 1564 1563 1564 1563 1563 1564 1564 1563 1564 1564 1566 1566 1565 1564 1564 1565 1565 1566 1567 1568 1569 1570 1572 1574 1576 1578 1581 1584 1585 1587 1587 1587 1589 1589 1589
1560 1560 1560 1560 1561 1561 1562 1561 1560 1561 1562 1562 1560 1560 1560 1560 1561 1561 1561 1560 1560 1561 1561 1562 1565 1567 1565 1564 1564 1565 1567 1570 1573 1574 1576 1580 1582 1584 1586 1587 1587 1588 1588
1558 1558 1559 1559 1561 1561 1560 1560 1560 1560 1560 1559 1558 1557 1557 1558 1559 1559 1558 1555 1556 1555 1557 1559 1561 1557 1561 1561 1562 1562 1563 1565 1567 1570 1573 1576 1578 1580 1583 1585 1586 1586 1587
1557 1558 1558 1558 1559 1559 1559 1558 1558 1558 1558 1557 1557 1556 1556 1556 1554 1554 1555 1555 1553 1553 1552 1554 1555 1554 1553 1553 1556 1559 1560 1561 1562 1565 1569 1572 1575 1577 1579 1581 1583 1584 1585
1555 1556 1556 1556 1556 1556 1556 1555 1555 1556 1557 1557 1556 1556 1554 1552 1551 1551 1550 1550 1550 1550 1550 1552 1550 1548 1548 1549 1532 1554 1559 1559 1559 1561 1565 1568 1571 1574 1576 1578 1580 1581 1582
1554 1555 1553 1554 1554 1555 1555 1555 1554 1554 1554 1555 1555 1553 1552 1551 1549 1549 1549 1547 1548 1549 1550 1550 1547 1547 1545 1543 1541 1553 1555 1555 1556 1559 1559 1563 1566 1569 1571 1573 1576 1577 1578
1553 1553 1552 1552 1551 1552 1552 1553 1553 1553 1552 1552 1552 1552 1551 1551 1550 1549 1548 1548 1549 1548 1549 1548 1546 1543 1539 1534 1541 1545 1547 1547 1550 1554 1556 1557 1561 1564 1567 1569 1571 1573 1574
1551 1551 1551 1550 1550 1550 1549 1550 1550 1550 1550 1551 1551 1550 1550 1550 1550 1549 1548 1548 1548 1547 1546 1544 1543 1541 1536 1534 1536 1536 1540 1543 1544 1548 1550 1553 1556 1559 1562 1563 1564 1565 1567
1549 1548 1548 1548 1548 1548 1548 1548 1548 1548 1549 1549 1549 1549 1549 1548 1548 1548 1546 1547 1546 1545 1544 1542 1541 1539 1537 1536 1538 1541 1541 1540 1541 1544 1545 1548 1551 1553 1556 1559 1561 1562 1562
1547 1546 1546 1546 1545 1546 1546 1546 1546 1546 1546 1547 1547 1547 1547 1546 1546 1546 1544 1543 1544 1544 1543 1540 1538 1538 1539 1538 1538 1539 1537 1539 1539 1540 1542 1544 1547 1550 1551 1553 1554 1556 1558
1545 1545 1544 1543 1543 1543 1544 1545 1545 1545 1545 1545 1545 1546 1545 1545 1545 1545 1544 1543 1542 1542 1541 1537 1536 1537 1537 1537 1537 1537 1537 1538 1539 1539 1539 1541 1543 1544 1546 1548 1550 1551 1551
1542 1542 1541 1540 1540 1541 1541 1542 1543 1542 1543 1543 1543 1543 1543 1543 1543 1543 1542 1542 1542 1542 1541 1539 1538 1538 1539 1538 1539 1539 1538 1537 1538 1538 1538 1538 1537 1539 1541 1543 1545 1546 1546
1539 1539 1538 1537 1537 1537 1538 1539 1539 1540 1540 1540 1540 1540 1541 1540 1540 1540 1540 1540 1540 1541 1541 1541 1541 1540 1540 1539 1539 1538 1537 1536 1537 1537 1537 1535 1536 1536 1537 1538 1540 1542 1542
1537 1537 1536 1535 1534 1535 1536 1536 1536 1536 1536 1536 1537 1538 1539 1538 1539 1539 1539 1539 1538 1539 1540 1540 1540 1539 1539 1538 1537 1536 1535 1534 1533 1533 1533 1534 1534 1533 1534 1534 1536 1536 1537
1537 1536 1536 1535 1534 1533 1533 1534 1533 1533 1533 1534 1535 1536 1537 1538 1538 1537 1537 1537 1536 1536 1537 1538 1539 1538 1537 1537 1536 1535 1534 1532 1531 1531 1532 1531 1531 1531 1532 1531 1532 1531 1531
1538 1537 1536 1536 1535 1534 1533 1533 1533 1532 1531 1531 1532 1533 1534 1535 1535 1535 1534 1534 1534 1533 1534 1534 1536 1535 1534 1534 1534 1534 1533 1531 1529 1528 1528 1528 1527 1528 1529 1529 1528 1527 1527
1539 1538 1537 1536 1535 1535 1534 1534 1534 1533 1532 1531 1530 1531 1530 1530 1531 1531 1532 1531 1532 1532 1532 1532 1532 1532 1532 1531 1531 1531 1530 1530 1527 1526 1525 1525 1525 1526 1527 1527 1526 1524 1524
1539 1538 1539 1538 1537 1536 1535 1534 1534 1534 1533 1531 1529 1529 1527 1526 1527 1527 1529 1529 1529 1529 1529 1529 1529 1529 1529 1529 1529 1527 1527 1527 1525 1523 1523 1522 1522 1523 1523 1523 1523 1523 1522
1539 1538 1538 1538 1537 1537 1537 1536 1535 1534 1533 1531 1529 1528 1525 1524 1524 1524 1525 1526 1525 1525 1525 1525 1524 1525 1525 1526 1526 1525 1524 1523 1523 1522 1521 1521 1520 1520 1521 1521 1520 1520 1521
1537 1537 1536 1535 1535 1535 1535 1536 1535 1533 1531 1530 1528 1527 1525 1524 1524 1523 1522 1522 1522 1520 1521 1521 1521 1521 1521 1521 1522 1521 1522 1521 1521 1520 1519 1519 1518 1517 1519 1518 1518 1518 1517
1531 1532 1533 1532 1532 1532 1532 1533 1533 1532 1530 1528 1526 1526 1525 1523 1521 1521 1520 1519 1518 1517 1517 1517 1518 1519 1520 1520 1519 1518 1519 1519 1518 1517 1516 1516 1516 1516 1515 1515 1515 1516 1516
1526 1529 1530 1529 1530 1529 1529 1529 1529 1529 1529 1527 1525 1523 1522 1521 1520 1520 1518 1516 1515 1514 1515 1515 1515 1516 1516 1516 1516 1515 1515 1516 1515 1515 1514 1513 1513 1514 1514 1513 1514 1514 1514
1523 1524 1526 1526 1526 1528 1527 1525 1525 1526 1525 1525 1524 1523 1521 1520 1519 1517 1515 1513 1511 1511 1511 1512 1512 1512 1513 1513 1513 1513 1512 1512 1513 1514 1513 1512 1511 1512 1512 1512 1513 1513 1512
1520 1522 1521 1522 1523 1523 1523 1524 1522 1521 1521 1521 1520 1520 1520 1518 1517 1515 1513 1511 1509 1508 1507 1508 1508 1509 1509 1509 1510 1510 1511 1511 1511 1511 1511 1511 1509 1510 1510 1510 1510 1511 1510